Location: Dalton Gardens
(47.7327°N, 116.7697°W)
Time: 06:15:18
(UTC+00:00)

BlueWalker 3 - Pass Details

Date: 03 December 2022
Orbit: 499 x 517 km, 53.2° (Epoch: 28 January)

Event Time Altitude Azimuth Distance (km) Brightness Sun altitude
Rises 01:25:10 0° 282° (WNW) 2,632 6.7 -14.3°
Reaches altitude 10° 01:27:31 10° 291° (WNW) 1,741 5.5 -14.7°
Maximum altitude 01:31:10 36° 359° (N) 831 2.9 -15.2°
Enters shadow 01:32:39 26° 43° (NE) 1,034 3.0 -15.5°
